Location: Staunton
(38.1490°N, 79.0720°W)
Time: 09:49:40
(UTC-04:00)

ISS - Pass Details

Date: 30 May 2020
Orbit: 417 x 420 km, 51.6° (Epoch: 25 May)

Event Time Altitude Azimuth Distance (km) Brightness Sun altitude
Rises 23:24:15 0° 303° (WNW) 2,362 1.0 -24.6°
Reaches altitude 10° 23:26:25 10° 296° (WNW) 1,496 -0.3 -24.8°
Enters shadow 23:27:53 22° 283° (WNW) 963 -1.6 -24.9°
